Welcome to the New NWS' Forecast!
Most changes are behind the scenes, but click here for differences you might notice.
Latest weather observations around

Craig Field / Selma (KSEM)

Using English Units (Switch to International System of Units)
Date/ Time (CDT) Wind (mph) Vis. (mi) Weather Sky Cond. Temp (°F) Rel. Humidity Wind Chill (°F) Heat Index (°F) Pressure Precip. (in)
Air Dwpt 6 hour Altimeter (inHg) Sea level (inHg) 1 hr 3 hr 6 hr
Max Min
Oct 21 03:15 WNW 5 10 Clear CLR 50 50     100%     30.16        
Oct 21 02:55 Calm 10 Clear CLR 52 50     94%     30.15        
Oct 21 02:35 Calm 0.5 Fog VV005 50 48     94%     30.15        
Oct 21 02:15 Calm 4 Fog/Mist CLR 52 50     94%     30.15        
Oct 21 01:55 Calm 0.75 Fog/Mist VV005 50 50     100%     30.15        
Oct 21 01:35 Calm 1.75 Fog/Mist CLR 52 50     94%     30.15        
Oct 21 01:15 Calm 10 Clear CLR 54 52     94%     30.15        
Oct 21 00:55 WNW 5 10 Clear CLR 55 54     94%     30.15        
Oct 21 00:35 WNW 3 10 Clear CLR 54 52     94%     30.15        
Oct 21 00:15 Calm 10 Clear CLR 55 54     94%     30.16        
Oct 20 23:55 WNW 5 10 Clear CLR 55 54     94%     30.16        
Oct 20 23:35 WNW 3 10 Clear CLR 55 54     94%     30.16        
Oct 20 23:15 NW 5 10 Clear CLR 57 55     94%     30.16        
Oct 20 22:55 NW 6 10 Clear CLR 57 55     94%     30.17        
Oct 20 22:35 NW 7 10 Clear CLR 57 55     94%     30.16        
Oct 20 22:15 WNW 5 10 Clear CLR 59 55     88%     30.16        
Oct 20 21:55 WNW 6 10 Clear CLR 59 55     88%     30.16        
Oct 20 21:35 NW 6 10 Clear CLR 59 55     88%     30.15        
Oct 20 20:55 NW 6 10 Clear   61 57     88%     30.13        
Oct 20 20:35 NW 7 10 Clear   61 57     88%     30.13        
Oct 20 20:15 NW 7 10 Clear   63 57     83%     30.12        
Oct 20 19:55 WNW 5 10 Clear   63 59     88%     30.11        
Oct 20 19:35 NW 7 10 Clear   64 57     77%     30.1        
Oct 20 19:15 NW 8 10 Clear   64 59     83%     30.1        
Oct 20 18:55 NW 9 10 Clear   64 59     83%     30.09        
Oct 20 18:35 NW 9 10 Clear   66 59     78%     30.08        
Oct 20 17:15 NW 13 10 Clear   68 61     78%     30.04        
Oct 20 16:55 NNW 11 10 Clear   70 61     73%     30.03        
Oct 20 16:35 NNW 13 10 Clear   70 61     73%     30.03        
Oct 20 16:15 NNW 13 10 Clear   70 61     73%     30.02        
Oct 20 15:55 NW 10 10 Clear   72 61     69%   72 30.01        
Oct 20 15:35 NW 13 10 Clear   73 61     65%   73 30.01        
Oct 20 15:15 WNW 9 10 Clear   73 63     69%   74 30.01        
Oct 20 14:55 WNW 8 10 Clear   73 63     69%   74 30.01        
Oct 20 14:35 W 7 10 Clear   73 63     69%   74 30.02        
Oct 20 14:15 5 10 Clear   72 63     73%   72 30.02        
Oct 20 13:55 Calm 10 Clear   72 63     73%   72 30.03        
Oct 20 13:35 NW 7 10 Clear   72 63     73%   72 30.05        
Oct 20 13:15 WNW 9 10 Clear   73 63     69%   74 30.05        
Oct 20 12:55 WNW 8 10 Clear   73 63     69%   74 30.06        
Oct 20 12:35 NW 11 10 Clear   73 63     69%   74 30.06        
Oct 20 12:15 NW 9 10 Clear   73 63     69%   74 30.07        
Oct 20 11:55 NW 15 10 Clear   73 63     69%   74 30.07        
Oct 20 11:35 NNW 14 10 Clear   73 64     73%   74 30.07        
Oct 20 11:15 NNW 10 10 Clear   73 70     89%   75 30.07        
Oct 20 10:55 NW 11 4 Light Drizzle   73 70     89%   75 30.07        
Oct 20 10:35 NW 13 10 Light Drizzle   75 70     83%   76 30.07        
Oct 20 10:15 6 10 Light Drizzle   75 72     89%   77 30.06        
Oct 20 09:55 WSW 6 10 Clear   75 72     89%   77 30.07        
Oct 20 09:35 3 10 Clear   73 72     94%   75 30.07        
Oct 20 09:15 W 5 10 Clear   73 72     94%   75 30.06        
Oct 20 08:55 WSW 7 10 Clear   73 72     94%   75 30.05        
Oct 20 08:35 SW 7 10 Clear   73 72     94%   75 30.04        
Oct 20 08:15 WSW 7 10 Clear   73 72     94%   75 30.04        
Oct 20 07:55 WSW 6 10 Clear   73 70     89%   75 30.04        
Oct 20 07:35 WSW 6 10 Clear   73 72     94%   75 30.03        
Oct 20 07:15 WSW 6 10 Clear   73 72     94%   75 30.03        
Oct 20 06:55 SW 6 10 Clear   73 72     94%   75 30.03        
Oct 20 06:35 WSW 7 9 Clear   73 72     94%   75 30.04        
Oct 20 06:15 7 6 Fog/Mist   73 72     94%   75 30.03        
Oct 20 05:55 WSW 7 4 Fog/Mist   72 72     100%   73 30.03        
Oct 20 05:35 WSW 5 1.25 Fog/Mist   72 72     100%   73 30.03        
Oct 20 05:15 SW 6 2 Fog/Mist   72 72     100%   73 30.03        
Oct 20 04:55 SW 7 3 Fog/Mist   72 72     100%   73 30.03        
Oct 20 04:35 SSW 7 2.5 Fog/Mist   72 70     94%   73 30.03        
Oct 20 04:15 Calm 8 Clear   70 68     94%     30.03        
Oct 20 03:55 Calm 10 Clear   68 66     94%     30.04        
Oct 20 03:35 Calm 6 Fog/Mist   68 66     94%     30.04        
Oct 20 03:15 Calm 5 Fog/Mist   68 66     94%     30.05        
Oct 20 02:55 Calm 7 Clear   66 66     100%     30.05        
Oct 20 02:35 Calm 9 Clear   68 66     94%     30.06        
Oct 20 02:15 SSE 5 7 Clear   66        %     30.07        
Oct 20 01:55 Calm 7 Clear   66        %     30.07        
Oct 20 01:35 Calm 9 Clear   66        %     30.07        
Oct 20 01:15 Calm 10 Clear   68 66     94%     30.08        
Oct 20 00:55 Calm 5 Fog/Mist   68 66     94%     30.08        
Oct 20 00:35 Calm 7 Clear   68 66     94%     30.09        
Oct 20 00:15 Calm 5 Fog/Mist CLR 70 68     94%     30.09        
Oct 19 23:55 Calm 9 Clear CLR 68 68     100%     30.1        
Oct 19 23:35 SSE 3 10 Clear CLR 66        %     30.1        
Oct 19 23:15 SSE 3 9 Clear CLR 68 66     94%     30.11        
Oct 19 22:55 Calm 9 Mostly Clear FEW033 68 66     94%     30.11        
Oct 19 22:35 Calm 9 Mostly Clear FEW032 68 66     94%     30.11        
Oct 19 22:15 Calm 9 Mostly Clear FEW033 70 68     94%     30.12        
Oct 19 21:55 Calm 7 Mostly Clear FEW033 68 66     94%     30.11        
Oct 19 21:35 SE 3 10 Clear CLR 70 68     94%     30.11        
Oct 19 21:15 Calm 10 Clear CLR 70 68     94%     30.11        
Oct 19 20:55 Calm 9 Clear CLR 70 68     94%     30.11        
Oct 19 20:35 Calm 9 Clear CLR 70 68     94%     30.11        
Oct 19 20:15 Calm 10 Clear CLR 72 70     94%   73 30.11        
Oct 19 19:55 Calm 10 Clear CLR 72 70     94%   73 30.11        
Oct 19 19:35 Calm 10 Clear CLR 72 70     94%   73 30.11        
Oct 19 19:15 SE 3 9 Clear CLR 72 70     94%   73 30.11        
Oct 19 18:55 Calm 10 Clear CLR 73 70     89%   75 30.11        
Oct 19 18:35 SE 3 10 Clear CLR 73 70     89%   75 30.11        
Oct 19 18:15 Calm 10 Clear CLR 75 70     83%   76 30.11        
Oct 19 17:55 Calm 9 Clear CLR 79 68     70%   80 30.11        
Oct 19 17:35 Calm 10 Clear CLR 79 68     70%   80 30.11        
Oct 19 16:15 WNW 5 10 Clear CLR 81 68     66%   83 30.12        
Oct 19 15:55 5 10 Clear CLR 82 68     62%   85 30.12        
Oct 19 15:35 5 10 Mostly Clear FEW030 FEW037 81 66     62%   83 30.13        
Oct 19 15:15 3 10 Mostly Cloudy BKN030 BKN037 81 66     62%   83 30.13        
Oct 19 14:55 NW 5 10 Mostly Cloudy SCT030 BKN038 82 68     62%   85 30.13        
Oct 19 14:35 3 10 Mostly Cloudy SCT029 BKN036 82 68     62%   85 30.14        
Oct 19 14:15 Calm 10 Cloudy BKN027 OVC033 81 68     66%   83 30.15        
Oct 19 13:55 Calm 10 Mostly Cloudy BKN028 BKN033 BKN039 81 68     66%   83 30.16        
Oct 19 13:35 Calm 10 Mostly Cloudy BKN027 BKN033 81 66     62%   83 30.17        
Oct 19 13:15 Calm 10 Mostly Cloudy BKN025 BKN032 BKN038 81 66     62%   83 30.18        
Oct 19 12:55 5 8 Partly Cloudy SCT023 81 66     62%   83 30.19        
Oct 19 12:35 Calm 10 Partly Cloudy SCT023 79 66     65%   79 30.2        
Oct 19 12:15 5 10 Partly Cloudy SCT019 77 66     69%   78 30.22        
Oct 19 11:55 E 5 10 Partly Cloudy SCT018 77 66     69%   78 30.22        
Oct 19 11:35 ESE 5 10 Mostly Cloudy BKN014 75 64     69%   76 30.24        
Oct 19 11:15 6 10 Cloudy OVC014 73 64     73%   74 30.25        
Oct 19 10:55 SE 6 10 Cloudy OVC013 73 64     73%   74 30.25        
Oct 19 10:35 ESE 6 10 Cloudy OVC013 72 63     73%   72 30.25        
Oct 19 10:15 ESE 6 10 Cloudy OVC012 70 61     73%     30.26        
Oct 19 09:55 ESE 6 10 Cloudy OVC012 68 61     78%     30.26        
Oct 19 09:35 E 6 10 Cloudy OVC012 68 59     73%     30.26        
Oct 19 09:15 ESE 7 10 Cloudy OVC012 66 59     78%     30.26        
Oct 19 08:55 ESE 5 10 Cloudy OVC012 64 59     83%     30.26        
Oct 19 08:35 ESE 5 10 Cloudy OVC012 63 57     83%     30.26        
Oct 19 08:15 E 5 10 Cloudy OVC014 63 57     83%     30.25        
Oct 19 07:55 ENE 3 10 Cloudy OVC015 61 57     88%     30.25        
Oct 19 07:35 Calm 10 Cloudy OVC013 61 57     88%     30.24        
Oct 19 07:15 Calm 10 Cloudy OVC013 59 55     88%     30.24        
Oct 19 06:55 Calm 10 Cloudy OVC013 59 55     88%     30.23        
Oct 19 06:35 Calm 10 Mostly Cloudy BKN013 59 55     88%     30.24        
Oct 19 06:15 Calm 10 Clear CLR 59 55     88%     30.24        
Oct 19 05:55 Calm 10 Clear CLR 59 55     88%     30.24        
Oct 19 05:35 Calm 9 Clear CLR 59 55     88%     30.24        
Oct 19 05:15 Calm 10 Clear CLR 59 55     88%     30.24        
Oct 19 04:55 Calm 10 Clear CLR 59 55     88%     30.23        
Oct 19 04:35 Calm 10 Clear CLR 59 55     88%     30.23        
Oct 19 04:15 Calm 10 Clear CLR 59 55     88%     30.23        
Oct 19 03:55 Calm 10 Clear CLR 59 55     88%     30.23        
Oct 19 03:35 Calm 10 Clear   59 55     88%     30.23        
Oct 19 03:15 Calm 3 Clear   59 55     88%     30.23        
Oct 19 02:55 Calm 3 Clear   59 55     88%     30.24        
Oct 19 02:35 Calm 10 Clear CLR 59 55     88%     30.24        
Oct 19 02:15 Calm 10 Clear CLR 57 55     94%     30.25        
Oct 19 01:55 Calm 10 Clear CLR 57 55     94%     30.25        
Oct 19 01:35 Calm 10 Clear CLR 57 55     94%     30.25        
Oct 19 01:15 Calm 10 Clear CLR 59 55     88%     30.26        
Oct 19 00:55 Calm 10 Clear CLR 59 57     94%     30.26        
Oct 19 00:35 Calm 10 Clear CLR 59 57     94%     30.26        
Oct 19 00:15 Calm 10 Clear CLR 59 55     88%     30.26        
Oct 18 23:55 Calm 10 Clear CLR 59 55     88%     30.27        
Oct 18 23:35 Calm 10 Clear CLR 59 57     94%     30.27        
Oct 18 23:15 Calm 10 Clear CLR 59 55     88%     30.28        
Oct 18 22:55 Calm 10 Clear CLR 59 55     88%     30.28        
Oct 18 22:35 Calm 10 Clear CLR 61 57     88%     30.28        
Oct 18 22:15 Calm 10 Clear CLR 61 57     88%     30.28        
Oct 18 21:55 Calm 10 Clear CLR 59 57     94%     30.28        
Oct 18 21:35 Calm 10 Clear CLR 59 55     88%     30.28        
Oct 18 21:15 Calm 10 Clear CLR 59 57     94%     30.29        
Oct 18 20:55 Calm 10 Clear CLR 61 57     88%     30.28        
Oct 18 20:35 Calm 10 Clear   63 57     83%     30.28        
Oct 18 20:15 Calm 10 Clear   63 55     77%     30.28        
Oct 18 19:55 Calm 10 Clear   66 54     64%     30.28        
Oct 18 19:35 NNE 3 10 Clear   68 54     60%     30.28        
Oct 18 19:15 NE 3 10 Clear   68 54     60%     30.28        
Oct 18 18:55 NNE 3 10 Clear   70 54     56%     30.27        
Oct 18 18:35 N 3 10 Clear   70 52     53%     30.27        
Oct 18 18:15 N 5 10 Clear   72 52     50%   71 30.26        
Oct 18 17:55 N 7 10 Clear   73 52     47%   73 30.26        
Oct 18 17:35 N 5 10 Clear   75 50     41%   74 30.25        
Oct 18 17:15 N 8 10 Clear   77 48     36%   76 30.25        
Oct 18 16:55 N 9 10 Clear   77 48     36%   76 30.26        
Oct 18 16:35 N 7 10 Clear   77 48     36%   76 30.25        
Oct 18 16:15 N 8 10 Clear   77 46     34%   76 30.25        
Oct 18 15:55 N 7 10 Clear   77 48     36%   76 30.25        
Oct 18 15:35 N 6 10 Clear   77 50     39%   76 30.25        
Oct 18 15:15 NNE 5 10 Clear   77 48     36%   76 30.25        
Oct 18 14:55 6 10 Clear   77 50     39%   76 30.25        
Oct 18 14:35 NNE 8 10 Clear   77 48     36%   76 30.26        
Oct 18 14:15 NNE 5 10 Clear   77 48     36%   76 30.26        
Oct 18 13:55 N 8 10 Clear CLR 77 48     36%   76 30.27        
Oct 18 13:35 N 7 10 Clear CLR 75 48     38%   74 30.27        
Oct 18 13:15 NE 6 10 Clear CLR 73 48     41%   72 30.28        
Oct 18 12:55 N 6 10 Clear CLR 75 48     38%   74 30.3        
Oct 18 12:35 7 10 Clear CLR 73 48     41%   72 30.31        
Oct 18 12:15 5 10 Clear CLR 73 48     41%   72 30.32        
Oct 18 11:55 NNW 7 10 Clear CLR 72 50     46%   71 30.32        
Oct 18 11:35 6 10 Clear CLR 72 48     43%   71 30.33        
Oct 18 11:15 Calm 10 Clear   70 48     46%     30.33        
Oct 18 10:55 5 10 Clear   68 50     53%     30.34        
Oct 18 10:35 N 7 10 Clear   68 50     53%     30.34        
Oct 18 10:15 7 10 Clear   66 50     56%     30.34        
Oct 18 09:55 NE 5 10 Clear CLR 64 50     60%     30.34        
Oct 18 09:35 ENE 6 10 Clear CLR 64 50     60%     30.34        
Oct 18 09:15 NE 9 10 Clear CLR 63 50     63%     30.34        
Oct 18 08:55 NE 8 10 Clear CLR 61 50     68%     30.34        
Oct 18 08:35 NNE 7 10 Clear CLR 61 50     68%     30.34        
Oct 18 08:15 NE 3 10 Clear CLR 59 50     72%     30.33        
Oct 18 07:55 Calm 10 Clear CLR 59 50     72%     30.33        
Oct 18 07:35 Calm 10 Clear CLR 57 50     77%     30.32        
Oct 18 07:15 N 3 10 Clear CLR 57 50     77%     30.32        
Oct 18 06:55 Calm 10 Clear CLR 57 50     77%     30.31        
Oct 18 06:35 Calm 10 Clear CLR 57 50     77%     30.31        
Oct 18 06:15 N 5 10 Clear CLR 57 50     77%     30.3        
Oct 18 05:55 NNE 5 10 Clear CLR 57 50     77%     30.29        
Oct 18 05:35 Calm 10 Clear CLR 57 50     77%     30.29        
Oct 18 05:15 Calm 10 Clear CLR 59 50     72%     30.28        
Oct 18 04:55 Calm 10 Clear CLR 59 52     77%     30.29        
Oct 18 04:35 Calm 10 Clear CLR 59 50     72%     30.28        
Oct 18 04:15 NE 3 10 Clear CLR 59 52     77%     30.28        
Oct 18 03:55 Calm 10 Clear CLR 59 52     77%     30.28        
Oct 18 03:35 NNE 5 10 Clear CLR 59 52     77%     30.28        
Oct 18 03:15 N 5 10 Clear CLR 59 52     77%     30.29        
Oct 18 02:55 N 5 10 Clear CLR 59 54     82%     30.29        
Oct 18 02:35 N 5 10 Clear CLR 59 54     82%     30.29        
Oct 18 02:15 N 3 10 Clear CLR 61 54     77%     30.29        
Oct 18 01:55 Calm 10 Clear CLR 59 55     88%     30.29        
Oct 18 01:35 NNW 3 10 Clear CLR 61 55     82%     30.29        
Oct 18 01:15 Calm 10 Clear CLR 59 57     94%     30.28        
Oct 18 00:55 NW 5 10 Clear CLR 59 57     94%     30.28        
Oct 18 00:35 WNW 5 10 Clear CLR 59 57     94%     30.28        
Oct 18 00:15 NW 6 10 Clear CLR 61 57     88%     30.28        
Oct 17 23:55 NW 3 10 Mostly Clear FEW060 61 57     88%     30.29        
Oct 17 23:35 Calm 10 Clear CLR 61 57     88%     30.29        
Oct 17 23:15 Calm 10 Clear CLR 63 55     77%     30.29        
Oct 17 22:55 Calm 10 Clear CLR 63 55     77%     30.29        
Oct 17 22:35 N 6 10 Clear CLR 64 55     73%     30.29        
Oct 17 22:15 N 6 10 Clear   64 57     77%     30.29        
Oct 17 21:55 N 5 10 Clear   64 57     77%     30.28        
Oct 17 21:35 N 5 10 Clear   64 57     77%     30.28        
Oct 17 21:15 N 5 10 Clear   64 59     83%     30.28        
Oct 17 20:55 N 5 10 Clear   64 59     83%     30.28        
Oct 17 20:35 NNW 5 10 Clear   66 59     78%     30.27        
Oct 17 20:15 NNW 8 10 Clear   66 61     83%     30.27        
Oct 17 19:55 NNW 7 10 Clear   66 61     83%     30.26        
Oct 17 19:35 NW 6 10 Clear   66 61     83%     30.26        
Oct 17 19:15 NW 6 10 Clear   68 63     83%     30.25        
Oct 17 18:55 NNW 7 10 Clear   68 63     83%     30.25        
Oct 17 18:35 N 9 10 Clear   70 63     78%     30.24        
Oct 17 18:15 N 8 10 Clear   70 63     78%     30.24        
Oct 17 17:55 N 11 10 Clear   70 63     78%     30.23        
Oct 17 17:35 NNW 9 10 Clear   72 63     73%   72 30.22        
Oct 17 17:15 N 9 10 Clear   73 63     69%   74 30.22        
Oct 17 16:55 N 9 10 Clear   73 63     69%   74 30.21        
Oct 17 16:35 N 9 10 Clear   73 63     69%   74 30.2        
Oct 17 16:15 NNE 9 10 Clear   73 63     69%   74 30.2        
Oct 17 15:55 NNE 8 10 Clear   73 63     69%   74 30.2        
Oct 17 15:35 N 7 10 Clear   75 63     65%   75 30.2        
Oct 17 15:15 NNW 7 10 Clear   73 63     69%   74 30.2        
Oct 17 14:55 N 9 10 Clear   73 63     69%   74 30.21        
Oct 17 14:35 N 9 10 Clear   75 63     65%   75 30.21        
Oct 17 14:15 NNW 8 10 Clear   73 63     69%   74 30.21        
Oct 17 13:55 NNE 7 10 Clear   73 64     73%   74 30.21        
Oct 17 13:35 NNW 9 10 Clear   73 64     73%   74 30.22        
Oct 17 13:15 N 9 10 Clear   73 63     69%   74 30.23        
Oct 17 12:55 N 10 10 Clear   73 63     69%   74 30.23        
Oct 17 12:35 6 10 Clear   73 64     73%   74 30.23        
Oct 17 12:15 NE 8 10 Clear   73 63     69%   74 30.23        
Oct 17 11:55 N 9 10 Clear   72 63     73%   72 30.24        
Oct 17 11:35 NNE 7 10 Clear   72 63     73%   72 30.24        
Oct 17 11:15 NNE 6 10 Clear   72 63     73%   72 30.25        
Oct 17 10:55 NNE 7 10 Clear   70 63     78%     30.25        
Oct 17 10:35 N 8 10 Clear   70 64     83%     30.24        
Oct 17 10:15 N 6 10 Clear   70 63     78%     30.24        
Oct 17 09:55 7 10 Clear   70 64     83%     30.24        
Oct 17 09:35 N 6 10 Cloudy SCT009 BKN024 OVC030 68 64     88%     30.23        
Oct 17 09:15 NNE 5 10 Cloudy BKN024 OVC029 68 63     83%     30.23        
Oct 17 08:55 N 6 10 Clear   66 63     88%     30.22        
Oct 17 08:35 N 6 10 Clear   66 64     94%     30.22        
Oct 17 08:15 Calm 10 Clear   66 63     88%     30.2        
Oct 17 07:55 NE 5 10 Clear   66 63     88%     30.19        
Oct 17 07:35 NE 5 10 Clear   66 63     88%     30.19        
Oct 17 07:15 N 5 10 Clear   66 63     88%     30.19        
Oct 17 06:55 NE 6 10 Clear   66 63     88%     30.19        
Oct 17 06:35 N 6 10 Clear   66 63     88%     30.19        
Oct 17 06:15 N 6 10 Clear   66 63     88%     30.19        
Oct 17 05:55 NNW 6 10 Clear   66 63     88%     30.19        
Oct 17 05:35 NNW 6 10 Clear   66 63     88%     30.19        
Oct 17 05:15 NW 7 10 Clear   66 63     88%     30.18        
Oct 17 04:55 NNW 5 10 Clear   66 63     88%     30.17        
Oct 17 04:35 NNW 8 10 Clear   66 64     94%     30.16        
Oct 17 04:15 NNW 6 10 Clear   66 64     94%     30.15        
Oct 17 03:55 NNW 5 10 Clear   66 64     94%     30.14        
Oct 17 03:35 NNW 6 10 Clear   66 64     94%     30.14        
Oct 17 03:15 NW 5 10 Clear   66 64     94%     30.14        
Oct 17 02:55 WNW 5 10 Light Drizzle   66 64     94%     30.14        
Oct 17 02:35 NW 7 10 Light Drizzle   66 64     94%     30.14        
Oct 17 02:15 NW 5 10 Clear   66 64     94%     30.14        
Oct 17 01:55 NW 5 10 Light Drizzle   66 64     94%     30.14        
Oct 17 01:35 NW 6 10 Clear   68 64     88%     30.13        
Oct 17 01:15 Calm 10 Clear   68 64     88%     30.13        
Oct 17 00:55 NW 6 10 Clear   68 64     88%     30.13        
Oct 17 00:35 Calm 10 Clear   68 64     88%     30.13        
Oct 17 00:15 Calm 10 Clear   68 64     88%     30.13        
Oct 16 23:55 Calm 10 Clear   68 64     88%     30.13        
Oct 16 23:35 Calm 10 Clear   68 64     88%     30.14        
Oct 16 22:55 Calm 10 Clear   68 63     83%     30.14        
Oct 16 22:35 Calm 10 Clear   68 63     83%     30.15        
Oct 16 22:15 N 3 10 Clear   70 63     78%     30.14        
Oct 16 21:55 N 7 10 Clear   70 64     83%     30.14        
Oct 16 21:35 N 3 10 Clear   70 64     83%     30.14        
Oct 16 21:15 N 7 10 Clear   70 64     83%     30.14        
Oct 16 20:55 N 6 10 Clear   70 64     83%     30.14        
Oct 16 20:35 N 8 10 Clear   70 64     83%     30.13        
Oct 16 20:15 N 11 10 Clear   72 64     78%   72 30.13        
Oct 16 19:55 NNW 13 10 Clear   73 66     78%   74 30.12        
Oct 16 19:35 NNW 11 10 Clear   73 68     83%   74 30.12        
Oct 16 19:15 NNW 10 10 Clear   75 68     78%   76 30.11        
Oct 16 18:55 NNW 11 10 Clear   75 70     83%   76 30.1        
Oct 16 18:35 NNW 9 10 Clear   77 70     78%   78 30.09        
Oct 16 18:15 NW 7 10 Clear   77 72     83%   78 30.09        
Oct 16 17:55 NW 7 10 Clear   79 72     79%   82 30.08        
Oct 16 17:35 NW 8 10 Clear   79 72     79%   82 30.08        
Oct 16 17:15 WNW 7 10 Clear   79 72     79%   82 30.08        
Oct 16 16:55 NW 6 10 Clear   81 72     74%   85 30.07        
Oct 16 15:35 N 6 10 Clear   81 72     74%   85 30.07        
Oct 16 15:15 W 3 10 Clear   81 70     70%   84 30.07        
Oct 16 14:55 NW 6 10 Clear   81 70     70%   84 30.07        
Oct 16 14:35 W 5 10 Clear   79 70     74%   80 30.08        
Oct 16 14:15 W 7 10 Clear   79 72     79%   82 30.08        
Oct 16 13:55 W 6 10 Clear   79 72     79%   82 30.09        
Oct 16 13:35 Calm 10 Clear   79 72     79%   82 30.09        
Oct 16 13:15 W 5 10 Clear   81 70     70%   84 30.1        
Oct 16 12:55 Calm 10 Clear   79 70     74%   80 30.11        
Oct 16 12:35 W 5 10 Clear   79 70     74%   80 30.11        
Oct 16 12:15 Calm 10 Clear   79 70     74%   80 30.12        
Oct 16 11:55 Calm 8 Clear   77 70     78%   78 30.13        
Oct 16 11:35 Calm 10 Clear   75 70     83%   76 30.13        
Oct 16 11:15 Calm 10 Clear   75 70     83%   76 30.13        
Oct 16 10:55 NW 5 10 Clear   75 70     83%   76 30.13        
Oct 16 10:35 Calm 10 Clear   75 70     83%   76 30.14        
Oct 16 07:55 NNW 6 10 Clear   70 70     100%     30.13        
Oct 16 07:35 N 6 10 Clear   72 70     94%   73 30.12        
Oct 16 07:15 NW 6 10 Clear   70 70     100%     30.12        
Oct 16 06:55 NW 5 10 Clear   70 70     100%     30.11        
Oct 16 06:35 NW 6 10 Clear   70 70     100%     30.11        
Oct 16 06:15 NW 5 8 Clear   72 70     94%   73 30.11        
Oct 16 05:55 WNW 5 5 Fog/Mist   72 70     94%   73 30.1        
Oct 16 05:35 Calm 0.25 Fog   72 70     94%   73 30.1        
Oct 16 05:15 Calm 0.25 Fog   72 70     94%   73 30.1        
Oct 16 04:55 Calm 0.25 Fog   72 70     94%   73 30.09        
Oct 16 04:35 Calm 1.5 Fog/Mist   72 70     94%   73 30.09        
Oct 16 04:15 Calm 1.5 Fog/Mist   72 70     94%   73 30.08        
Oct 16 03:35 Calm 0.5 Fog   72 70     94%   73 30.08        
Oct 16 03:15 Calm 0.25 Fog   70 70     100%     30.08        
Oct 16 02:55 Calm 0.25 Fog   72 70     94%   73 30.09        
Notice The following observation data may not be complete
Oct 16 02:15   10 Clear            %              
May 15 07:15 E 6 10 Clear CLR 70 64     83%     29.97        
May 14 21:35 SSE 3 10 Clear CLR 77 66     69%   78 29.92        
May 14 10:35 NE 8 10 Clear CLR 88 61     40%   88 30.02        
May 14 08:15 N 5 10 Clear CLR 77 63     61%   77 30.03        
May 14 07:55 N 5 10 Clear CLR 75 64     69%   76 30.02        
Notice The following observation data may not be complete
May 14 05:15   10 Clear CLR          %              
Notice The following observation data may not be complete
May 13 20:15   10 Clear CLR          %              
May 13 16:15 NNE 5 10 Mostly Clear FEW075 93 55     28%   91 30.02        
May 13 13:35 N 9 10 Mostly Clear FEW065 91 57     32%   90 30.08        
May 13 11:55 6 10 Clear   90 57     34%   88 30.11        
May 13 06:35 Calm 10 Clear CLR 61 57     88%     30.1        
Notice The following observation data may not be complete
May 13 05:15   10 Clear CLR          %              
May 13 00:15 Calm 10 Clear CLR 66 63     88%     30.08        
May 12 10:15 Calm 10 Clear CLR 82 61     48%   83 30.16        
Notice The following observation data may not be complete
May 12 08:55 Calm 10 Clear CLR   61      %     30.17        
May 12 08:35 Calm 10 Clear CLR 75 59     57%   75 30.17        
May 12 01:15 Calm 10 Clear CLR 63 57     83%     30.08        
May 11 21:55 Calm 10 Clear CLR 68 63     83%     30.08        
May 11 19:35 Calm 10 Mostly Clear FEW080 79 63     58%   79 30.04        
May 11 15:55 S 11 10 Clear CLR 91 54     28%   89 30.04        
May 11 11:35 SW 8 10 Clear CLR 84        %     30.14        
Jun 12 07:35 ESE 6 10 Clear CLR 77 72     83%   78 30.14        
Jun 11 21:15 Calm 10 Clear   77 73     89%   79 30.1        
Notice The following observation data may not be complete
Jun 11 20:35   10 Cloudy FEW055 OVC065          %              
Jun 11 17:35 SSE 6 10 Light Rain SCT032 BKN050 BKN065 73 70     89%   75 30.05        
Notice The following observation data may not be complete
Jun 11 17:15 SE 14 3 Clear     70      %     30.07        
Jun 11 14:55 E 9 10 Mostly Clear FEW047 FEW060 91 68     46%   96 30.07        
Jun 11 02:35 Calm 10 Mostly Clear FEW055 68 64     88%     30.05        
Jun 10 23:35 Calm 10 Clear CLR 70 64     83%     30.06        
Jun 10 12:55 SE 9 10 Mostly Cloudy FEW055 BKN080 86 59     40%   85 30.06        
Jun 09 22:55 Calm 10 Mostly Cloudy BKN060 BKN070 68 64     88%     29.98        
Jun 09 16:35 W 8 10 Clear CLR 86 57     38%   85 29.92        
Notice The following observation data may not be complete
Jun 09 12:35   10 Partly Cloudy SCT055          %              
Jun 08 08:35 Calm 10 Clear CLR 70 59     69%     29.92        
Jun 07 22:15 N 7 10 Mostly Cloudy BKN070 BKN080 73 57     57%   73 29.85        
Jun 07 20:15 NNE 5 10 Mostly Cloudy BKN060 BKN070 77 63     61%   77 29.81        
Jun 07 19:15 NNE 10 10 Mostly Clear FEW080 81 59     48%   81 29.8        
Notice The following observation data may not be complete
Jun 07 14:35   10 Mostly Clear FEW050 FEW055          %              
Jun 07 12:35 N 11 10 Mostly Cloudy BKN037 82 66     58%   85 29.77        
Jun 07 11:55 N 8 10 Partly Cloudy SCT032 SCT037 82 66     58%   85 29.77        
Jun 07 09:35 NNE 8 10 Clear CLR 77 64     65%   77 29.78        
Notice The following observation data may not be complete
Jun 06 09:15   10 Cloudy OVC005          %              
Jun 05 20:15 E 7 10 Cloudy BKN004 BKN080 OVC090 73 72     94%   75 29.79